Other Public Products
Issued by NWS Grand Forks, ND

Home | Current Version | Previous Version | Graphics & Text | Print | Product List | Glossary On
Versions: 1 2 3 4 5 6 7 8 9 10 11 12 13 14 15 16 17 18 19 20 21 22 23 24 25 26 27 28 29 30 31 32 33 34 35 36 37 38 39 40 41 42 43 44 45 46 47 48 49 50
000
FPUS83 KFGF 250010
OPUFGF
PRAIRIE TO PINES WEATHER ROUNDUP
NATIONAL WEATHER SERVICE EASTERN NORTH DAKOTA/GRAND FORKS ND
700 PM CDT SUN JUL 24 2016

 **SATELLITE DATA USED TO AUGMENT SKY COVER AT AUTOMATED STATIONS**
 *****  WEATHER ACROSS EASTERN NORTH DAKOTA  *****

CITY           SKY/WX    TMP DP  RH WIND       PRES   REMARKS
GRAND FORKS    MOSUNNY   79  60  52 W10       29.90S
6HR MIN TEMP:  76; 6HR MAX TEMP:  81;

GRAND FORKS AF SUNNY     78  58  50 NW12      29.92S
GRAND CITY NWS   N/A     79 N/A N/A W13         N/A
BUXTON           N/A     80  59  49 W12         N/A
DEVILS LAKE    SUNNY     76  56  49 W20       29.96S
6HR MIN TEMP:  74; 6HR MAX TEMP:  77;

FARGO          SUNNY     80  57  45 NW13      29.94S
6HR MIN TEMP:  80; 6HR MAX TEMP:  83;

WAHPETON ARPT  CLEAR     79  54  41 NW13      29.96S
$$

 *****  WEATHER ACROSS CENTRAL AND WESTERN NORTH DAKOTA  *****

CITY           SKY/WX    TMP DP  RH WIND       PRES   REMARKS
JAMESTOWN      SUNNY     79  58  48 NW15      29.98S
6HR MIN TEMP:  77; 6HR MAX TEMP:  80;

BISMARCK       SUNNY     84  56  38 N8        30.02S
6HR MIN TEMP:  80; 6HR MAX TEMP:  85;

MINOT          SUNNY     83  57  41 NW9       29.98F
6HR MIN TEMP:  80; 6HR MAX TEMP:  84;

MINOT AFB      SUNNY     80  56  44 NW12      29.97F
6HR MIN TEMP:  76; 6HR MAX TEMP:  80;

GARRISON         N/A     80  56  43 NW6       30.01F
6HR MIN TEMP:  76; 6HR MAX TEMP:  81;

WILLISTON      SUNNY     88  50  27 NW7       29.98F
6HR MIN TEMP:  80; 6HR MAX TEMP:  88;

DICKINSON      SUNNY     82  46  28 W7        30.02F
6HR MIN TEMP:  77; 6HR MAX TEMP:  83;

HETTINGER      MOSUNNY   88  44  21 NE10      30.06F
6HR MIN TEMP:  83; 6HR MAX TEMP:  90;

$$

 *****  OTHER OBSERVATIONS NORTHEAST NORTH DAKOTA  *****

CITY           SKY/WX    TMP DP  RH WIND       PRES   REMARKS
WALHALLA       NOT AVBL
LANGDON        FAIR      75  63  64 NW10G18   29.95R
CAVALIER       FAIR      77  63  61 W7        29.89S
GRAFTON        FAIR      79  63  57 W15       29.91S
CANDO          NOT AVBL
FORT TOTTEN    NOT AVBL
ROLLA            N/A     73  55  53 W14G20    29.98R
RUGBY          NOT AVBL
 ***** THE ABOVE OBSERVATIONS ARE NON NWS ARE NOT QUALITY
        CONTROLLED AND MAY MIS-REPORT RAIN FOR SNOW...
$$

 *****  OTHER OBSERVATIONS SOUTHEAST NORTH DAKOTA *****

CITY           SKY/WX    TMP DP  RH WIND       PRES   REMARKS
COOPERSTOWN    NOT AVBL
VALLEY CITY    FAIR      77  59  53 NW14      29.99F
OAKES            N/A    N/A N/A N/A MISG        N/A
GWINNER        FAIR      81  57  44 W15       29.99F
SHEYENNE NWR     N/A     82  56  40 NW10      29.95
BUFFALO          N/A     78  51  37 NW12        N/A
WYNDMERE         N/A     81  57  44 NW9         N/A
 ***** THE ABOVE OBSERVATIONS ARE NON NWS ARE NOT QUALITY
       CONTROLLED AND MAY MIS-REPORT RAIN FOR SNOW...
$$

  *****  WEATHER ACROSS NORTHERN MINNESOTA  *****

CITY           SKY/WX    TMP DP  RH WIND       PRES   REMARKS
FLAG ISLAND    MOSUNNY   72  61  68 NW15      29.84R
WARROAD        NOT AVBL
ROSEAU         SUNNY     75  64  69 W12G20    29.87R
HALLOCK        MOSUNNY   72  64  78 N6        29.89R
THF RVR FALLS  SUNNY     76  61  59 W15G21    29.91S
6HR MIN TEMP:  74; 6HR MAX TEMP:  78;

HALSTAD        NOT AVBL
FOSSTON        SUNNY     75  59  57 W10G18    29.93S
BAUDETTE       MOSUNNY   75  58  55 W18G26    29.85R
6HR MIN TEMP:  74; 6HR MAX TEMP:  79;

WASKISH        MOSUNNY   75  61  60 W13G24    29.87S
CROOKSTON      SUNNY     77  64  65 NW13      29.92R
$$
  *****  WEATHER ACROSS CENTRAL AND WEST MINNESOTA  *****

CITY           SKY/WX    TMP DP  RH WIND       PRES   REMARKS
BEMIDJI        MOSUNNY   77  59  53 W15       29.91R
PARK RAPIDS    SUNNY     78  60  53 NW13      29.93R
6HR MIN TEMP:  76; 6HR MAX TEMP:  82;

WADENA         SUNNY     73  57  56 W7        29.95R
DETROIT LAKES  SUNNY     77  59  53 W9        29.97R
MOORHEAD       SUNNY     79  55  44 NW14      29.95S
FERGUS FALLS   SUNNY     77  59  53 NW13G18   29.97S
ELBOW LAKE     FAIR      77  60  56 NW12G17   29.98S
MORRIS MN      SUNNY     81  61  50 NW9       29.97S
STAPLES        MOSUNNY   75  59  57 W8        29.94S
WHEATON        SUNNY     81  61  50 W8        29.99S
$$
  *****  WEATHER ELSEWHERE ACROSS MINNESOTA  *****

CITY           SKY/WX    TMP DP  RH WIND       PRES   REMARKS
DULUTH         MOSUNNY   78  60  53 W17       29.87S
6HR MIN TEMP:  77; 6HR MAX TEMP:  81;

INTRNTL FALLS  MOSUNNY   75  58  55 W17G29    29.83R
6HR MIN TEMP:  73; 6HR MAX TEMP:  78;

ELY            MOSUNNY   75  57  53 W17       29.83S
CLOQUET        MOSUNNY   79  55  44 W8        29.88S
BRAINERD       SUNNY     79  59  50 W12G20    29.92S
6HR MIN TEMP:  75; 6HR MAX TEMP:  81;

HIBBING        SUNNY     75  58  55 W8G18     29.87R
6HR MIN TEMP:  73; 6HR MAX TEMP:  78;

ALEXANDRIA     SUNNY     78  57  48 NW13      29.98S
6HR MIN TEMP:  76; 6HR MAX TEMP:  81; 6HR PCP: TRACE;

SAINT CLOUD    SUNNY     79  65  62 W10       29.93F
6HR MIN TEMP:  77; 6HR MAX TEMP:  81;

MINNEAPOLIS    CLOUDY    81  62  52 NW13      29.93S
6HR MIN TEMP:  80; 6HR MAX TEMP:  85;

$$

  *****  WEATHER ACROSS SOUTH DAKOTA  *****

CITY           SKY/WX    TMP DP  RH WIND       PRES   REMARKS
SIOUX FALLS    MOSUNNY   78  63  59 N9        30.03F
6HR MIN TEMP:  74; 6HR MAX TEMP:  79; 6HR PCP: TRACE;

BROOKINGS      SUNNY     78  63  59 NW10      30.03S
WATERTOWN      SUNNY     82  55  39 W13       30.02S
6HR MIN TEMP:  76; 6HR MAX TEMP:  84;

HURON          SUNNY     83  58  42 E5        30.02S
6HR MIN TEMP:  73; 6HR MAX TEMP:  86; 6HR PCP: TRACE;

SISSETON         N/A     81  57  43 NW12      29.98R
ABERDEEN       SUNNY     83  56  39 NW10      30.01S
6HR MIN TEMP:  81; 6HR MAX TEMP:  86;

MITCHELL       SUNNY     81  57  43 N3        30.04S
PIERRE         SUNNY     86  47  25 NE7       30.03S
6HR MIN TEMP:  74; 6HR MAX TEMP:  87;

MOBRIDGE       SUNNY     87  52  29 NE6       30.01F
RAPID CITY     SUNNY     86  47  25 S8        30.08S
6HR MIN TEMP:  78; 6HR MAX TEMP:  88;

$$

  *****  SOME WEATHER IN NEARBY STATES *****

CITY           SKY/WX    TMP DP  RH WIND       PRES   REMARKS
GLASGOW MT     SUNNY     86  47  25 NW6       29.97S
6HR MIN TEMP:  81; 6HR MAX TEMP:  89;

GREAT FALLS MT SUNNY     85  32  15 S6        30.01F
6HR MIN TEMP:  75; 6HR MAX TEMP:  86;

CHEYENNE WY    CLOUDY    77  53  43 SE10      30.19F
6HR MIN TEMP:  65; 6HR MAX TEMP:  83; 6HR PCP:  0.07;

SCOTTSBLUFF NE CLOUDY    81  54  39 E20       30.10R
6HR MIN TEMP:  77; 6HR MAX TEMP:  87; 6HR PCP: TRACE;

OMAHA NE       CLOUDY    84  64  50 E6        30.01S
6HR MIN TEMP:  83; 6HR MAX TEMP:  85;

DES MOINES IA  CLOUDY    82  67  60 N7        29.98S
6HR MIN TEMP:  82; 6HR MAX TEMP:  90;

DAVENPORT IA   MOSUNNY   86  79  79 NW9       29.90R HX  99
6HR MIN TEMP:  86; 6HR MAX TEMP:  90;

CHICAGO IL     CLOUDY    73  68  84 S15       29.88R THUNDER
6HR MIN TEMP:  73; 6HR MAX TEMP:  93; 6HR PCP:  0.93;

EAU CLAIRE WI  SUNNY     79  63  57 NW6       29.89F
6HR MIN TEMP:  79; 6HR MAX TEMP:  86;

LA CROSSE WI   MOSUNNY   83  66  56 W6        29.89F
6HR MIN TEMP:  83; 6HR MAX TEMP:  89;

$$

  *****  SOME NATIONAL WEATHER *****

CITY           SKY/WX    TMP DP  RH WIND       PRES   REMARKS
LA GUARDIA NY  MOCLDY    85  68  56 S9        29.93R
6HR MIN TEMP:  85; 6HR MAX TEMP:  94;                              C1F1C2F2C3F3C4F4C5F5C6F6C7F7C8F8C9F9CaFaCbFbCcFcCdFdCe!



USA.gov is the U.S. government's official web portal to all federal, state and local government web resources and services.